STARLINK-36131

Last updated on Fri Dec 19 2025 00:02:09 GMT+0000 (Coordinated Universal Time)

1 67032U 25294C 25351.83335648 -.01280305 48880-3 -31838-2 0 9993 2 67032 42.9998 151.3126 0001695 273.2681 130.7083 15.94973854 2122
UTC large
Height (km)
Speed (km/s)
/
Latitude / Longitude
Inclination (degrees)
Orbital Period (minutes)
Azimuth
Elevation
Range (km)
Doppler Factor

Next 0 passes for location: London (51.5072 / 0.1276)

Sorry there are no passes over London.